Location: ???????
(55.3754°N, 39.3545°E)
Time: 18:20:52
(UTC+00:00)

Cosmos 1825 Rocket - Pass Details

Date: 14 April 2026
Orbit: 597 x 623 km, 82.5° (Epoch: 19 May)

Event Time Altitude Azimuth Distance (km) Brightness Sun altitude
Rises 22:45:11 0° 348° (NNW) 2,866 7.9 -22.7°
Reaches altitude 10° 22:47:26 10° 351° (N) 1,956 6.9 -22.6°
Maximum altitude 22:51:45 75° 77° (ENE) 626 3.5 -22.3°
Enters shadow 22:52:29 59° 141° (SE) 699 3.6 -22.3°
